Погода в Ирганае

Россия / Республика Дагестан     42°38′22″N   46°55′55″E
темп.,
°C
ветер,
м/с
пор.,
м/с
влажн.,
%
обл.,
%
осадки,
мм/ч
давл.,
гПа
погр.,
м
11 мая, вт
вт1100:00+3ю228396 0.0 102265
03:00+2ю328130 0.0 102134
06:00+3ю23745 0.0 1020150
09:00+7вюв445914 0.0 10171164
12:00+12в445330 0.0 10141314
15:00+12всв446014 0.0 1013814
18:00+7св228141 0.0 1015409
21:00+6ююз22880 0.0 101615
12 мая, ср
ср1200:00+6ююз11870 0.0 101510
03:00+6юз118625 0.0 101411
06:00+8св11764 0.0 101568
09:00+12св31700 0.0 1015506
12:00+14ссв32657 0.0 1015785
15:00+14ссв32642 0.0 1015750
18:00+12ссв21741 0.0 1015260
21:00+10юз11860 0.0 101610
13 мая, чт
чт1300:00+10ююз22831 0.0 101511
03:00+10юз32652 0.0 101419
06:00+13ююз32550 0.0 101536
09:00+20в22400 0.0 1014452
12:00+22св32470 0.0 1013798
15:00+22св32530 0.0 1013625
18:00+19св11710 0.0 101477
21:00+16ююз22785 0.0 101511
14 мая, пт
пт1400:00+15юз32716 0.0 101416
03:00+14юз33525 0.0 101525
06:00+15ююз43520 0.0 101657
09:00+23ююв12305 0.0 1014479
12:00+25всв333219 0.0 10131307
15:00+25всв33385 0.0 10121216
18:00+21в22621 0.0 101373
21:00+18ююз326566 0.0 101420
15 мая, сб
сб1500:00+16ююз336796 0.3 101438
03:00+15юз436130 0.3 101436
06:00+16юз33633 0.0 101471
09:00+23вюв11410 0.0 1014709
12:00+25св32380 0.0 10131420
15:00+24всв33399 0.0 10131276
18:00+20сз1258100 0.0 101450
21:00+17юз2266100 0.0 101618